EW6113 Weather Reports


time (UTC)temp
C
wind
direction
speed
KPH
gust
KPH
rain 1hr
cm
rain 24hr
cm
rain mn
cm
humidity
%
barometer
mb
20260506033025 13 59 4.8 11.3 0.00 0.00 0.00 88 1016.6
20260506031525 13 66 4.8 16.1 0.00 0.00 0.00 87 1016.3
20260506030030 13 89 4.8 14.5 0.00 0.00 0.00 86 1016.1
20260506024539 13 106 9.7 17.7 0.00 0.00 0.00 85 1016.0
20260506023022 14 85 11.3 19.3 0.00 0.00 0.00 84 1015.8
20260506021522 14 87 8.0 19.3 0.00 0.00 0.00 84 1015.7
20260506020021 15 93 8.0 25.7 0.00 0.00 0.00 83 1015.7
20260506014523 15 110 16.1 20.9 0.00 0.00 0.00 82 1015.8
20260506013020 15 104 12.9 20.9 0.00 0.00 0.00 81 1015.8
20260506011520 15 81 11.3 20.9 0.00 0.00 0.00 79 1015.7
20260506010020 15 91 11.3 22.5 0.00 0.00 0.00 79 1015.7
20260506004518 15 99 11.3 24.1 0.00 0.00 0.00 78 1015.7
20260506003019 15 121 12.9 24.1 0.00 0.00 0.00 77 1015.7
20260506001519 15 84 12.9 24.1 0.00 0.00 0.00 76 1015.6
20260506000017 16 89 12.9 17.7 0.00 0.00 0.00 77 1015.6
20260505234526 16 96 16.1 25.7 0.00 0.00 0.00 76 1015.6
20260505233020 16 87 11.3 24.1 0.00 0.00 0.00 77 1015.7
20260505231516 16 109 14.5 27.4 0.00 0.00 0.00 77 1015.6
20260505230032 16 92 12.9 29.0 0.00 0.00 0.00 78 1015.7
20260505224515 16 101 12.9 29.0 0.00 0.00 0.00 75 1015.8
20260505223014 16 108 9.7 29.0 0.00 0.00 0.00 77 1015.9
20260505221513 16 88 16.1 25.7 0.00 0.00 0.00 75 1016.0
20260505220012 16 61 11.3 24.1 0.00 0.00 0.00 76 1016.1
20260505214512 16 65 16.1 27.4 0.00 0.00 0.00 75 1016.3
20260505213012 16 66 14.5 25.7 0.00 0.00 0.00 76 1016.4
20260505211513 16 92 9.7 25.7 0.00 0.00 0.00 76 1016.5
20260505210013 15 109 14.5 25.7 0.00 0.00 0.00 76 1016.5
20260505204508 15 126 16.1 30.6 0.00 0.00 0.00 75 1016.5
20260505203010 15 96 14.5 27.4 0.00 0.00 0.00 74 1016.5
20260505201512 16 111 9.7 22.5 0.00 0.00 0.00 74 1016.4
20260505200007 15 69 12.9 24.1 0.00 0.00 0.00 73 1016.5
20260505194506 15 101 14.5 22.5 0.00 0.00 0.00 74 1016.6
20260505193005 15 82 9.7 24.1 0.00 0.00 0.00 74 1016.5
20260505191507 15 103 12.9 22.5 0.00 0.00 0.00 73 1016.4
20260505190007 16 90 14.5 24.1 0.00 0.00 0.00 70 1016.4
20260505184502 16 51 9.7 27.4 0.00 0.00 0.00 71 1016.3
20260505183058 15 110 9.7 19.3 0.00 0.00 0.00 74 1016.3
20260505181557 15 94 9.7 22.5 0.00 0.00 0.00 72 1016.2
20260505180104 15 67 11.3 19.3 0.00 0.00 0.00 73 1016.0
20260505174609 15 78 8.0 24.1 0.00 0.00 0.00 70 1015.8
20260505173052 15 111 11.3 22.5 0.00 0.00 0.00 72 1015.8
20260505171552 15 84 9.7 19.3 0.00 0.00 0.00 76 1015.8
20260505170048 15 51 6.4 16.1 0.00 0.00 0.00 77 1015.8
20260505164550 14 65 6.4 16.1 0.00 0.00 0.00 77 1015.8
20260505163046 14 119 8.0 14.5 0.00 0.00 0.00 76 1015.8
20260505161550 14 115 8.0 14.5 0.00 0.00 0.00 79 1015.7
20260505153035 13 130 6.4 14.5 0.00 0.00 0.00 86 1015.3
20260505151531 12 57 0.0 6.4 0.00 0.00 0.00 91 1015.2
20260505124520 8 196 0.0 0.0 0.00 0.00 0.00 94 1014.7
20260505123028 8 87 0.0 0.0 0.00 0.00 0.00 94 1014.7
20260505121518 8 87 0.0 0.0 0.00 0.00 0.00 94 1014.8
20260505120024 8 87 0.0 0.0 0.00 0.00 0.00 94 1014.8
20260505114517 8 87 0.0 0.0 0.00 0.00 0.00 94 1014.7
20260505113017 8 87 0.0 0.0 0.00 0.00 0.00 94 1014.8
20260505111520 8 87 0.0 0.0 0.00 0.00 0.00 94 1014.8
20260505101527 8 87 0.0 0.0 0.00 0.00 0.00 92 1014.6
20260505100026 8 87 0.0 0.0 0.00 0.00 0.00 92 1014.7
20260505094507 9 87 0.0 0.0 0.00 0.00 0.00 92 1014.8
20260505093005 9 87 0.0 0.0 0.00 0.00 0.00 92 1015.0
20260505091502 10 87 0.0 0.0 0.00 0.00 0.00 91 1015.0
20260505090001 10 87 0.0 0.0 0.00 0.00 0.00 91 1015.3
20260505084606 10 87 0.0 0.0 0.00 0.00 0.00 91 1015.3
20260505083102 10 87 0.0 0.0 0.00 0.00 0.00 90 1015.4
20260505081614 10 87 0.0 0.0 0.00 0.00 0.00 90 1015.5
20260505074549 11 87 0.0 0.0 0.00 0.00 0.00 89 1015.5
20260505073048 11 87 0.0 0.0 0.00 0.00 0.00 89 1015.4
20260505071552 12 87 0.0 0.0 0.00 0.00 0.00 88 1015.5
20260505070043 12 87 0.0 0.0 0.00 0.00 0.00 87 1015.4
20260505064543 12 87 0.0 4.8 0.00 0.00 0.00 87 1015.4
20260505063049 12 99 4.8 9.7 0.00 0.00 0.00 86 1015.4
20260505061545 12 113 3.2 11.3 0.00 0.00 0.00 86 1015.4
20260505060042 12 111 3.2 9.7 0.00 0.00 0.00 87 1015.4
20260505054546 12 91 4.8 11.3 0.00 0.00 0.00 86 1015.4
20260505053044 12 109 3.2 12.9 0.00 0.00 0.00 86 1015.5
20260505051542 12 108 3.2 11.3 0.00 0.00 0.00 87 1015.4
20260505041537 13 103 4.8 12.9 0.00 0.00 0.00 84 1015.3
20260505040036 12 89 6.4 11.3 0.00 0.00 0.00 82 1015.1
20260505034535 13 108 1.6 11.3 0.00 0.00 0.00 82 1015.0